Wind_Speed
14 14 13 8 5 6 7 4 2 3 4 4 3 3 5 5 4 5 8 9 9 10 10 9 10 12 14
14 9 7 5 6 6 4 1 5 6 8 7 5 4 4 3 3 5 6 6 9 10 11 12 13 11 12
8 8 6 3 3 2 1 1 2 3 2 1 5 5 1 4 4 6 6 7 10 10 10 14 15 15 15
7 5 2 2 2 1 2 3 1 2 1 3 3 3 6 6 6 8 8 9 10 11 11 13 12 12 13
1 1 3 4 4 3 2 3 5 3 4 4 5 6 5 5 7 8 9 8 9 8 9 10 10 11 12
4 4 6 6 7 4 1 1 0 1 2 3 2 3 5 7 6 6 5 7 7 7 9 10 11 12 12
9 7 6 7 4 4 4 2 2 2 1 2 1 0 0 2 3 1 2 5 7 9 11 12 13 13 11
12 11 8 3 4 3 4 5 4 6 2 1 2 2 4 3 2 1 4 6 9 10 12 12 14 13 10
11 10 10 8 4 2 3 0 3 1 8 3 3 5 4 5 5 5 6 9 9 10 12 12 14 13 10
6 7 8 8 7 7 5 3 2 2 8 6 4 6 4 1 4 5 8 7 8 9 11 12 13 14 13
4 4 6 7 7 7 6 6 3 3 7 6 4 4 3 4 4 3 9 9 9 11 11 12 13 11 13
2 3 5 6 6 6 6 7 7 7 7 7 2 4 4 4 4 8 11 4 8 14 15 16 13 10 9
2 2 4 4 4 5 4 4 6 8 9 10 8 6 4 4 6 9 11 11 5 19 20 19 16 14 14
3 2 3 4 5 6 7 5 5 7 7 11 10 8 7 7 8 11 5 7 16 16 20 20 15 12 9
4 4 4 4 6 7 8 8 8 10 12 13 10 7 5 7 7 5 9 12 17 20 20 20 18 15 14
5 5 5 5 6 7 7 8 9 11 13 14 17 14 11 5 4 9 11 16 21 21 20 17 25 20 19
6 6 5 6 5 7 7 8 9 9 9 9 11 13 9 3 9 4 13 21 22 25 22 21 22 24 18
Wind_Direction
283 311 317 290 265 295 304 322 107 56 87 99 96 58 29 45 67 52 30 24 24 32 14 11 13 17 26
298 336 328 314 267 275 299 279 170 115 106 99 91 55 75 78 43 2 13 31 43 30 31 39 37 31 32
293 316 304 316 304 330 354 277 225 251 256 102 91 114 54 20 29 33 48 51 49 48 43 44 48 43 41
290 286 311 337 27 18 45 44 109 57 80 114 178 100 69 52 57 65 56 59 56 53 48 36 33 31 29
132 87 48 39 26 1 77 107 70 95 79 88 70 96 66 56 58 63 69 67 55 43 37 30 21 18 17
77 82 59 55 34 31 118 194 334 65 94 89 117 119 93 68 72 79 72 60 45 30 19 10 359 353 352
94 65 62 42 48 69 84 107 101 51 156 158 190 22 321 152 78 91 20 39 19 3 355 350 346 342 342
83 77 69 69 85 86 99 106 103 48 42 100 6 250 292 301 305 348 357 352 348 350 352 351 350 350 350
78 74 65 64 85 136 89 250 182 52 22 353 348 321 257 258 308 328 346 345 350 351 350 349 351 347 349
80 63 51 48 45 47 46 82 84 139 6 357 357 357 341 197 303 307 326 334 333 345 348 346 347 341 345
78 51 41 38 39 40 44 51 90 83 359 360 12 14 328 310 319 303 334 334 334 340 343 346 343 341 334
89 52 41 34 36 40 48 56 58 54 24 17 30 0 337 314 313 319 342 359 333 343 342 340 339 336 335
146 84 46 38 41 63 70 71 59 38 26 24 11 343 289 263 302 310 343 335 347 339 339 342 343 343 337
160 111 74 71 69 72 75 82 85 39 16 3 356 345 331 286 281 297 325 325 335 338 336 335 344 345 336
163 141 116 90 72 74 70 64 55 16 7 359 4 341 317 307 313 321 310 325 344 343 343 336 338 342 333
167 155 141 119 87 70 60 48 31 18 7 2 6 15 20 26 331 339 341 335 337 340 343 338 328 337 334
175 169 161 127 98 68 44 30 19 4 1 0 10 16 4 342 333 296 323 332 333 332 335 335 321 329 333
Height
825 825 825 824 823 823 823 822 822 822 821 820 819 819 819 818 818 817 816 815 813 811 810 808 806 803 800
822 822 823 822 822 821 821 821 820 822 821 820 820 820 820 819 818 817 815 814 813 811 810 807 805 804 802
821 821 821 820 820 820 819 820 820 821 822 822 822 820 820 819 818 817 816 814 813 811 811 808 806 805 803
820 820 819 819 819 820 819 819 821 821 821 821 821 820 820 818 817 817 816 814 813 813 811 811 809 806 804
818 819 819 818 819 819 818 820 821 821 821 821 820 821 820 819 818 817 816 815 815 814 813 811 810 807 805
818 819 819 818 819 818 819 820 821 822 822 822 821 820 820 820 819 818 817 816 815 814 813 811 809 806 804
819 819 820 820 820 820 820 821 822 822 822 822 821 820 819 820 819 817 816 815 815 813 811 810 807 805 803
819 821 821 821 821 821 822 822 823 822 821 820 820 819 819 818 817 817 816 815 814 812 810 808 806 804 802
823 823 822 821 821 821 821 821 821 821 821 820 820 818 817 816 816 816 816 814 813 812 810 808 806 803 801
825 824 823 822 822 822 821 821 821 821 822 821 819 818 816 816 816 815 814 813 812 811 809 807 805 802 800
824 824 823 823 823 823 822 821 821 821 822 820 819 818 818 816 815 814 813 812 811 810 808 805 803 802 799
823 823 824 824 824 823 822 822 822 822 822 820 819 819 818 817 815 814 813 812 812 810 807 804 802 799 798
823 824 824 824 823 823 823 823 823 823 822 821 820 819 818 817 817 815 814 812 811 809 805 802 799 797 795
823 823 823 823 823 823 823 823 823 823 823 821 820 818 817 816 816 814 814 813 810 807 804 800 798 796 795
822 822 823 823 823 824 823 823 823 823 822 820 818 816 815 814 813 813 812 811 809 806 803 798 796 794 792
821 822 822 823 824 824 823 824 823 823 822 821 818 815 814 813 813 812 811 810 807 805 803 799 793 791 789
820 821 822 823 823 823 824 824 824 824 823 822 820 819 818 818 813 813 811 808 805 801 799 798 794 787 785